Location: Pic du Midi - T1M
(42.9366°N, 0.1426°E)
Time: 17:48:39
(UTC+01:00)

Nauka - Pass Details

Date: 05 October 2021
Orbit: 417 x 423 km, 51.6° (Epoch: 24 October)

Event Time Altitude Azimuth Distance (km) Brightness Sun altitude
Rises 19:20:06 0° 302° (WNW) 2,357 ? -9.4°
Reaches altitude 10° 19:22:12 10° 301° (WNW) 1,492 ? -9.7°
Maximum altitude 19:25:32 76° 215° (SW) 433 ? -10.3°
Enters shadow 19:28:40 11° 130° (SE) 1,402 ? -10.9°
